KL7GG Weather Reports


Display with metric or nautical units.
time (UTC)temp
F
wind
direction
speed
MPH
gust
MPH
rain 1hr
in
rain 24hr
in
rain mn
in
humidity
%
barometer
mb
20260507123940 35 0 0.0 0.0 0.00 0.01 0.00 91 1015.6
20260507122436 36 0 0.0 0.0 0.00 0.01 0.00 91 1015.6
20260507120932 36 0 0.0 0.0 0.00 0.01 0.00 91 1015.7
20260507115428 36 0 0.0 0.0 0.00 0.01 0.00 91 1015.6
20260507113924 37 0 0.0 1.0 0.00 0.01 0.00 90 1015.6
20260507112420 37 0 0.0 0.0 0.00 0.01 0.00 90 1015.6
20260507110915 37 0 0.0 0.0 0.00 0.01 0.00 90 1015.6
20260507105410 37 0 0.0 0.0 0.00 0.01 0.00 89 1015.6
20260507103906 37 0 0.0 0.0 0.00 0.01 0.00 88 1015.4
20260507102402 37 0 0.0 0.0 0.00 0.01 0.00 88 1015.3
20260507100858 37 0 0.0 0.0 0.00 0.01 0.00 87 1015.2
20260507095354 38 0 0.0 0.0 0.00 0.01 0.00 86 1015.2
20260507093850 38 0 0.0 0.0 0.00 0.01 0.00 85 1015.1
20260507092346 38 0 0.0 4.0 0.00 0.01 0.00 84 1015.0
20260507090840 39 305 1.0 9.0 0.00 0.01 0.00 84 1014.8
20260507083830 38 0 0.0 5.0 0.00 0.01 0.00 89 1014.7
20260507082326 38 331 1.0 3.0 0.00 0.01 0.01 89 1014.6
20260507080822 38 0 0.0 3.0 0.00 0.01 0.01 90 1014.5
20260507075318 38 0 0.0 0.0 0.00 0.01 0.01 90 1014.4
20260507073814 39 0 0.0 0.0 0.00 0.01 0.01 90 1014.3
20260507072310 39 0 0.0 0.0 0.00 0.01 0.01 89 1014.1
20260507070806 39 0 0.0 0.0 0.00 0.01 0.01 89 1014.1
20260507065305 39 0 0.0 0.0 0.00 0.01 0.01 88 1014.0
20260507063758 39 0 0.0 7.0 0.00 0.01 0.01 89 1013.8
20260507062254 40 0 0.0 0.0 0.00 0.01 0.01 89 1013.6
20260507060750 40 0 0.0 0.0 0.00 0.01 0.01 88 1013.5
20260507055246 40 0 0.0 0.0 0.00 0.01 0.01 88 1013.4
20260507052236 40 322 3.0 6.0 0.01 0.01 0.01 85 1013.2
20260507050730 41 333 1.0 11.0 0.01 0.01 0.01 86 1013.2
20260507045226 41 351 4.0 11.0 0.01 0.01 0.01 87 1013.1
20260507043722 42 334 3.0 11.0 0.01 0.01 0.01 84 1013.1
20260507042218 43 0 0.0 7.0 0.00 0.00 0.00 78 1013.0
20260507040714 43 316 5.0 9.0 0.00 0.00 0.00 76 1012.6
20260507035210 44 312 1.0 7.0 0.00 0.00 0.00 76 1012.5
20260507033706 44 300 1.0 4.0 0.00 0.00 0.00 76 1012.4
20260507032202 44 0 0.0 7.0 0.00 0.00 0.00 74 1012.4
20260507030658 44 0 0.0 4.0 0.00 0.00 0.00 73 1012.3
20260507025154 45 331 3.0 7.0 0.00 0.00 0.00 72 1012.2
20260507022144 46 0 0.0 6.0 0.00 0.00 0.00 70 1012.0
20260507020640 45 326 4.0 11.0 0.00 0.00 0.00 70 1012.0
20260507013630 46 333 3.0 10.0 0.00 0.00 0.00 69 1011.9
20260507012126 46 311 4.0 11.0 0.00 0.00 0.00 67 1011.8
20260507005114 47 321 4.0 10.0 0.00 0.00 0.00 64 1011.6
20260507003610 47 321 7.0 11.0 0.00 0.00 0.00 62 1011.5
20260507002106 48 315 6.0 11.0 0.00 0.00 0.00 60 1011.4
20260507000602 48 310 3.0 10.0 0.00 0.00 0.00 60 1011.4
20260506235056 47 329 4.0 10.0 0.00 0.00 0.00 61 1011.3
20260506233552 47 311 3.0 10.0 0.00 0.00 0.00 61 1011.3
20260506232048 48 333 4.0 13.0 0.00 0.00 0.00 58 1011.1
20260506230544 49 324 7.0 12.0 0.00 0.00 0.00 59 1011.0
20260506225040 49 336 5.0 14.0 0.00 0.00 0.00 59 1010.9
20260506223536 49 309 3.0 10.0 0.00 0.00 0.00 59 1010.8
20260506222032 49 339 2.0 8.0 0.00 0.00 0.00 59 1010.7
20260506220528 48 330 3.0 11.0 0.00 0.00 0.00 61 1010.7
20260506215024 49 309 8.0 13.0 0.00 0.00 0.00 59 1010.5
20260506213520 49 310 5.0 9.0 0.00 0.00 0.00 58 1010.5
20260506212014 48 326 3.0 10.0 0.00 0.00 0.00 58 1010.4
20260506210510 49 280 6.0 15.0 0.00 0.00 0.00 58 1010.3
20260506205004 48 306 4.0 11.0 0.00 0.00 0.00 60 1010.2
20260506203500 48 275 5.0 11.0 0.00 0.00 0.00 62 1010.0
20260506201956 47 313 4.0 7.0 0.00 0.00 0.00 62 1009.9
20260506200452 47 303 1.0 8.0 0.00 0.00 0.00 62 1009.9
20260506194948 47 317 5.0 10.0 0.00 0.00 0.00 59 1009.8
20260506193442 47 0 0.0 0.0 0.00 0.00 0.00 57 1009.7
20260506191938 47 0 0.0 3.0 0.00 0.00 0.00 58 1009.6
20260506190432 46 0 0.0 3.0 0.00 0.00 0.00 59 1009.6
20260506184928 45 299 2.0 5.0 0.00 0.00 0.00 63 1009.6
20260506183424 46 294 2.0 5.0 0.00 0.00 0.00 63 1009.4
20260506181920 45 252 4.0 6.0 0.00 0.00 0.00 63 1009.4
20260506180416 44 0 0.0 4.0 0.00 0.00 0.00 64 1009.3
20260506174912 44 286 2.0 4.0 0.00 0.00 0.00 64 1009.3
20260506173408 43 0 0.0 2.0 0.00 0.00 0.00 65 1009.2
20260506171904 42 0 0.0 0.0 0.00 0.00 0.00 68 1009.3
20260506170358 41 0 0.0 2.0 0.00 0.00 0.00 69 1009.3
20260506163348 40 0 0.0 0.0 0.00 0.00 0.00 71 1009.0
20260506161844 40 0 0.0 0.0 0.00 0.00 0.00 72 1008.9
20260506160340 39 0 0.0 0.0 0.00 0.00 0.00 75 1008.8
20260506154836 38 0 0.0 0.0 0.00 0.00 0.00 75 1008.9
20260506153332 38 0 0.0 0.0 0.00 0.00 0.00 76 1008.8
20260506151828 38 0 0.0 0.0 0.00 0.00 0.00 76 1008.8
20260506150318 38 0 0.0 0.0 0.00 0.00 0.00 77 1008.7
20260506144814 38 0 0.0 0.0 0.00 0.00 0.00 77 1008.7
20260506143310 37 0 0.0 0.0 0.00 0.00 0.00 77 1008.6
20260506141806 37 0 0.0 0.0 0.00 0.00 0.00 76 1008.6
20260506140302 37 0 0.0 0.0 0.00 0.00 0.00 75 1008.7
20260506134758 37 0 0.0 0.0 0.00 0.00 0.00 74 1008.7
20260506133254 37 0 0.0 0.0 0.00 0.00 0.00 73 1008.6
20260506131751 38 0 0.0 0.0 0.00 0.00 0.00 72 1008.6
20260506130246 38 0 0.0 0.0 0.00 0.00 0.00 71 1008.3